This demonstration page uses our WeatherBlox Daily Observations layout. Learn more.

Left ArrowRight Arrow

30.21309, -93.2044

Hourly Observations for March 8, 2015

Temp ( °F °C ) Dew Point ( °F °C ) Humidity (%) Winds ( mph kmh ) Pressure ( in mb ) Visibility ( mi km ) Precip ( " mm )
12:15 am 00:15 Cloudy 51 10.6 45 7.1 79 79 Calm 30.30 1026 10 16 0.00 0.00
12:35 am 00:35 Cloudy 52 11.1 44 6.4 73 73 Calm 30.30 1026 10 16 0.00 0.00
12:55 am 00:55 Cloudy 52 11.1 44 6.5 74 74 Calm 30.30 1026 10 16 0.00 0.00
1:15 am 01:15 Cloudy 52 11 43 6 72 72 Calm 30.30 1026 10 16 0.00 0.00
1:35 am 01:35 Cloudy 52 11.1 43 5.9 71 71 Calm 30.30 1026 10 16 0.00 0.00
1:55 am 01:55 Cloudy 53 11.4 43 5.9 69 69 W 3 6 30.30 1026 10 16 0.00 0.00
3:15 am 03:15 Cloudy 52 11.2 42 5.7 69 69 Calm 30.30 1026 10 16 0.00 0.00
3:35 am 03:35 Cloudy 52 10.9 42 5.7 71 71 Calm 30.30 1026 10 16 0.00 0.00
3:55 am 03:55 Cloudy 51 10.8 43 5.9 72 72 Calm 30.30 1026 10 16 0.00 0.00
4:15 am 04:15 Cloudy 52 11 42 5.8 71 71 Calm 30.27 1025 10 16 0.00 0.00
6:00 am 06:00 Cloudy 52 11 45 7 77 77 Calm 30.27 1025 10 16 0.00 0.00
6:50 am 06:50 Cloudy 52 11 46 8 82 82 Calm 30.27 1025 10 16 0.00 0.00
7:50 am 07:50 Cloudy 52 11 45 7 77 77 Calm 30.27 1025 10 16 0.00 0.00
8:50 am 08:50 Cloudy 52 11 45 7 77 77 N 5 7 30.27 1025 10 16 0.00 0.00
9:50 am 09:50 Cloudy 54 12 43 6 67 67 NE 3 6 30.27 1025 10 16 0.00 0.00
11:50 am 11:50 Cloudy 57 14 41 5 55 55 NNE 6 9 30.27 1025 10 16 0.00 0.00
12:50 pm 12:50 Cloudy 59 15 39 4 48 48 NNE 6 9 30.27 1025 10 16 0.00 0.00
1:50 pm 13:50 Cloudy with Light Rain 61 16 39 4 45 45 ENE 5 7 30.21 1023 10 16 0.00 0.00
2:50 pm 14:50 Cloudy with Light Rain 57 14 45 7 63 63 NE 3 6 30.18 1022 10 16 0.00 0.00
4:50 pm 16:50 Cloudy 54 12 48 9 82 82 VRB 3 6 30.18 1022 10 16 0.00 0.00
5:50 pm 17:50 Cloudy with Light Rain 52 11 48 9 88 88 VRB 7 11 30.18 1022 10 16 0.00 0.00
6:55 pm 18:55 Cloudy with Light Rain 52 11 48 9 88 88 VRB 7 11 30.18 1022 7 11 0.00 0.00
8:50 pm 20:50 Mostly Cloudy 50 10 48 9 94 94 E 10 17 30.09 1019 10 16 0.00 0.00
9:15 pm 21:15 Mostly Cloudy 50 10.2 48 8.7 91 91 NE 6 9 30.12 1020 10 16 0.00 0.00
9:35 pm 21:35 Cloudy with Light Rain 50 10.2 48 8.8 91 91 ENE 7 11 30.12 1020 10 16 0.00 0.00
9:50 pm 21:50 Cloudy with Light Rain 50 10 48 9 94 94 E 8 13 30.12 1020 10 16 0.00 0.00
9:55 pm 21:55 Cloudy with Drizzle 50 10.2 48 8.7 91 91 ENE 10 17 30.12 1020 10 16 0.00 0.00
10:15 pm 22:15 Cloudy with Drizzle 50 10.1 47 8.5 90 90 ENE 7 11 30.12 1020 10 16 0.00 0.00
10:35 pm 22:35 Mostly Cloudy 50 10.2 47 8.4 89 89 ENE 7 11 30.12 1020 10 16 0.00 0.00
10:55 pm 22:55 Mostly Cloudy 50 10.2 47 8.3 88 88 ENE 6 9 30.12 1020 10 16 0.00 0.00
11:15 pm 23:15 Mostly Cloudy 50 10.2 47 8.1 87 87 ENE 8 13 30.12 1020 10 16 0.00 0.00
11:35 pm 23:35 Cloudy 51 10.3 47 8.1 86 86 E 8 13 30.12 1020 10 16 0.00 0.00
11:55 pm 23:55 Cloudy with Drizzle 51 10.5 46 8 85 85 E 7 11 30.12 1020 10 16 0.00 0.00

Powered by AerisWeather